COSMOS 2548 (47230 NORAD) Tracking and Keplerian Element Data

This shows tracking and keplerian element data for the satellite.

Feedback or suggestion? Click here.




ElementValue
Catalog47230
NameCOSMOS 2548
Epoch Orbit1579
Epoch Day99.93798152
Epoch Year2021
RAAN39.7224
Inclination82.5037
Eccentricity0.0015961
Argument of Perigee10.6163
Mean Anonmoly349.5251
Mean Motion12.42951209
Decay Rate-7E-08
L11 47230U 20091D 21099.93798152 -.00000007 00000-0 -12075-3 0 9990
L22 47230 82.5037 39.7224 0015961 10.6163 349.5251 12.42951209 15795

Live tracking and technical data element details for COSMOS 2548 (NORAD 47230). COSMOS 2548 can be tracked NOW for your location showing map with azimuth and elevation plus other details from your city location.

Track the satellite on the map from your city or location and see movement details for azimuth, elevation, latitude, longitude, range, height, and movement on the map or in text.







IsCatalogInMostPopularTable: catalog: 47230, numindb: 44
Update: records affected: 1



GetName: 47230 COSMOS 2548

Hit Count: updated at: Sat, 10 Apr 2021 19:11:27 GMT